Tegucigalpa, Honduras

11:56 PM CST on July 26, 2017 (GMT -0600)
Toncontin International

Weather History for MHTG - August, 2013

Change the Weather History Date:

Saturday, August 24, 2013

  Actual Average Record
Temperature  
Mean Temperature 72 °F -  
Max Temperature 81 °F 81 °F 90 °F (2015)
Min Temperature 63 °F 62 °F 32 °F (2001)
Cooling Degree Days 7    
Growing Degree Days 22 (Base 50)    
Moisture  
Dew Point 66 °F    
Average Humidity 85    
Maximum Humidity 100    
Minimum Humidity 51    
Precipitation  
Precipitation 0.63 in 0.21 in - ()
Sea Level Pressure  
Sea Level Pressure 30.01 in    
Wind  
Wind Speed 2 mph ()    
Max Wind Speed 12 mph    
Max Gust Speed -    
Visibility 5.0 miles    
Events Rain , Thunderstorm    
Averages and records for this station are not official NWS values.
T = Trace of Precipitation, MM = Missing Value Source: Averaged Metar Reports

Daily Weather History Graph

Daily Weather History Graph

Search for Another Location

Airport or City:

Trip Planner

Search our weather history database for the weather conditions in past years. The results will help you decide how hot, cold, wet, or windy it might be!

Date:

Astronomy

Aug. 24, 2013 Rise Set
Actual Time 5:36 AM CST 6:05 PM CST
Civil Twilight 5:14 AM CST 6:27 PM CST
Nautical Twilight 4:49 AM CST 6:52 PM CST
Astronomical Twilight 4:23 AM CST 7:18 PM CST
Moon 8:52 PM CST (8/24) 8:47 AM CST (8/24)
Length of Visible Light 13h 12m
Length of Day
12h 28m
Waning Gibbous, 84% of the Moon is Illuminated
Aug 24
Waning Gibbous
Aug 28
Last Quarter
Sep 5
New
Sep 12
First Quarter
Sep 19
Full

Hourly Weather History & Observations

Time (CST) Temp. Heat Index Dew Point Humidity Pressure Visibility Wind Dir Wind Speed Gust Speed Precip Events Conditions
12:00 AM 66 °F - 66 °F 98% 29.92 in 5 mi Calm Calm - -  
12:00 AM 66.2 °F - 66.2 °F 100% 30.01 in 5.0 mi Calm Calm - N/A   Mostly Cloudy
1:00 AM 66.2 °F - 66.2 °F 100% 30.01 in 5.0 mi Calm Calm - N/A   Mostly Cloudy
2:00 AM 66.2 °F - 66.2 °F 100% 30.01 in 5.0 mi Calm Calm - N/A   Mostly Cloudy
3:00 AM 65 °F - 64 °F 94% 29.84 in 5 mi Calm Calm - -   Haze
3:00 AM 64.4 °F - 64.4 °F 100% 30.01 in 5.0 mi Calm Calm - N/A   Mostly Cloudy
5:00 AM 64.4 °F - 64.4 °F 100% 30.01 in 4.3 mi Calm Calm - N/A   Scattered Clouds
6:00 AM 64 °F - 63 °F 97% 29.92 in 4 mi Calm Calm - -   Mist
6:00 AM 64.4 °F - 62.6 °F 94% 30.01 in 3.7 mi Calm Calm - N/A   Mostly Cloudy
7:00 AM 66.2 °F - 64.4 °F 94% 30.06 in - Calm Calm - N/A   Mostly Cloudy
8:00 AM 68.0 °F - 68.0 °F 100% 30.06 in 5.0 mi South 2.3 mph - N/A   Mostly Cloudy
9:00 AM 71 °F - 65 °F 78% 29.96 in 6 mi Calm Calm - -   Haze
9:00 AM 77.0 °F - 64.4 °F 65% 30.06 in 6.2 mi Variable 2.3 mph - N/A   Mostly Cloudy
10:00 AM 78.8 °F - 66.2 °F 65% 30.09 in 6.2 mi NE 8.1 mph - N/A   Mostly Cloudy
11:00 AM 80.6 °F 81.8 °F 62.6 °F 54% 30.06 in 6.2 mi East 6.9 mph - N/A   Mostly Cloudy
12:00 PM 78 °F - 63 °F 51% 29.90 in 7 mi ENE 11.5 mph - -   Haze
12:00 PM 80.6 °F 81.8 °F 62.6 °F 54% 30.04 in 6.2 mi East 5.8 mph - N/A   Scattered Clouds
1:00 PM 78.8 °F - 64.4 °F 61% 30.04 in 6.2 mi SSE 4.6 mph - N/A   Scattered Clouds
2:00 PM 82.4 °F 83.4 °F 62.6 °F 51% 30.01 in 6.2 mi SSE 5.8 mph - N/A   Scattered Clouds
3:00 PM 72 °F - 68 °F 82% 29.82 in 3 mi SW 9.2 mph - - Rain Light Drizzle
3:00 PM - - - N/A% 30.01 in 6.2 mi SW 9.2 mph - N/A   Light Drizzle
4:00 PM 75.2 °F - 69.8 °F 83% 30.01 in 6.2 mi SSW 4.6 mph - N/A   Mostly Cloudy
5:00 PM - - 66.2 °F N/A% 30.01 in 5.0 mi NE 10.4 mph - N/A Rain Rain Showers
6:00 PM 67 °F - 64 °F 87% 29.90 in 2 mi East 4.6 mph - - Rain Rain
6:00 PM 68.0 °F - 64.4 °F 88% 3.00 in 2.5 mi East 4.6 mph - N/A Rain Heavy Rain
6:05 PM 80.6 °F 88.1 °F 78.8 °F 94% 29.89 in 1.2 mi ESE 8.1 mph - N/A Rain , Thunderstorm Heavy Thunderstorms and Rain
7:00 PM 68.0 °F - 66.2 °F 94% 30.06 in 3.7 mi Variable 2.3 mph - N/A Rain Rain
8:00 PM 68.0 °F - 66.2 °F 94% 30.09 in 5.0 mi SW 4.6 mph - N/A   Light Drizzle
9:00 PM 68.0 °F - 66.2 °F 94% 30.12 in 6.2 mi Calm Calm - N/A   Drizzle
10:00 PM 68.0 °F - 66.2 °F 94% 30.12 in 6.2 mi Calm Calm - N/A   Light Drizzle
11:00 PM 66.2 °F - 64.4 °F 94% 30.12 in 6.2 mi Calm Calm - N/A   Mostly Cloudy